Wind_Speed
31 29 28 26 25 25 25 24 25 23 22 20 19 18 18 17 16 15 14 13 11 10 9 10 11 11 11 10 10 8 8 9 9 9 9 9 9 9 9 9 10 10 10 11
32 31 30 28 26 26 25 25 25 24 24 21 21 20 20 19 18 17 16 13 12 10 10 10 10 10 10 10 9 9 9 9 9 9 9 9 9 8 9 9 10 10 11 11
33 33 32 31 27 26 26 26 26 25 24 23 23 22 22 20 19 17 16 14 13 12 12 11 11 11 11 10 10 9 9 9 9 9 9 9 9 9 9 10 10 10 11 11
32 33 35 30 29 28 27 25 26 25 24 24 23 23 23 22 20 18 16 14 14 14 13 12 12 12 12 11 10 10 10 10 10 9 9 9 10 10 10 11 11 11 12 12
33 34 34 31 31 30 29 28 27 25 24 24 24 24 24 22 20 19 18 15 14 14 14 13 13 13 12 12 11 11 11 11 11 10 10 10 11 11 11 11 12 12 12 13
34 34 34 32 31 32 31 31 28 26 25 25 24 24 23 22 21 20 20 17 15 15 14 14 14 13 13 13 12 12 12 12 12 12 12 12 12 12 13 13 13 13 13 14
34 34 33 32 32 32 33 31 28 27 26 24 24 23 22 22 21 20 18 17 16 16 15 15 15 14 14 14 13 14 14 14 13 13 13 12 12 13 14 14 14 15 16 16
34 33 32 31 32 33 32 29 29 28 26 25 24 23 22 21 20 20 19 17 17 17 17 16 16 15 14 14 14 15 15 15 14 14 14 14 14 14 14 14 14 15 16 17
34 32 30 31 32 32 30 29 29 28 27 25 23 22 22 21 20 20 18 18 18 18 17 17 16 16 16 15 15 15 15 15 15 14 15 15 15 15 15 15 16 17 18 19
35 34 32 31 31 31 29 29 29 28 26 24 24 23 22 21 21 20 19 19 18 18 18 17 17 17 16 16 16 16 16 15 16 16 16 16 16 16 17 17 18 19 19 20
35 34 33 33 32 31 30 29 29 28 27 26 25 24 23 22 21 21 20 20 19 19 18 18 18 18 17 17 18 18 18 18 18 18 18 18 18 18 18 19 19 20 21 22
36 35 34 32 32 32 31 31 31 30 28 26 25 25 23 22 21 21 21 20 19 19 19 19 18 18 18 18 18 19 19 20 19 19 19 19 18 19 19 20 21 22 23 23
36 36 35 34 33 32 31 30 30 30 29 27 27 26 24 23 22 21 21 20 20 20 20 20 20 19 18 18 19 19 20 20 19 19 19 19 20 20 21 22 22 23 24 24
36 35 34 34 33 33 32 31 29 28 29 28 27 26 25 24 23 22 21 21 21 20 20 20 20 20 19 19 20 20 20 20 20 20 20 21 22 22 22 23 24 24 24 24
35 35 34 34 33 33 32 30 29 29 29 28 27 27 26 25 25 24 23 22 22 22 22 21 21 21 20 20 20 21 21 20 21 21 21 22 22 23 23 24 24 24 25 25
35 35 34 33 31 31 31 31 29 28 27 27 27 27 27 26 26 25 24 23 23 23 23 22 22 22 21 21 21 21 21 21 21 21 21 22 23 23 24 25 25 25 26 26
35 35 35 34 31 30 30 30 29 27 27 27 27 27 27 27 27 26 25 25 25 24 23 23 23 23 23 23 23 22 22 22 22 22 23 24 24 25 25 26 26 27 27 28
32 33 32 31 29 29 30 29 27 26 26 26 26 26 27 27 28 27 27 26 26 25 24 24 24 24 24 23 23 23 22 22 23 24 24 24 25 26 26 27 27 27 28 29
29 30 30 31 31 30 30 28 27 27 26 26 26 26 26 26 26 26 26 26 26 25 24 24 24 23 23 23 23 23 24 24 24 25 24 25 25 26 26 27 28 28 28 29
26 26 26 27 28 28 27 27 27 28 27 27 26 26 26 26 25 25 25 25 24 24 24 24 24 24 24 24 24 25 25 25 25 25 25 25 26 26 26 26 27 27 28 29
25 25 24 25 25 26 26 26 26 26 26 26 25 25 25 26 25 24 24 24 24 23 23 24 24 24 24 24 24 24 24 25 24 25 25 26 26 27 27 27 27 27 28 28
22 23 23 23 24 26 26 26 26 25 25 24 24 24 25 25 25 24 23 24 24 23 23 23 23 23 23 23 23 24 25 24 24 24 25 25 26 27 27 27 27 27 28 28
20 21 22 23 23 24 25 25 25 25 25 24 24 24 24 24 24 24 23 22 23 23 22 22 22 22 22 22 22 22 22 22 23 24 24 25 26 28 28 28 27 27 28 28
20 21 22 22 22 22 23 24 24 24 23 23 23 23 23 24 23 22 21 21 21 21 21 21 21 22 22 22 21 21 22 23 23 23 23 25 26 27 27 27 27 28 28 29
19 19 19 20 20 20 20 21 22 22 21 21 21 21 21 21 20 20 20 20 20 20 20 21 21 21 21 22 22 22 22 22 22 22 23 24 25 26 26 27 27 28 28 29
16 17 17 17 17 17 17 18 18 19 19 19 18 19 20 19 19 19 19 19 19 19 19 20 20 20 20 21 21 22 22 22 22 23 24 25 25 25 26 27 28 28 28 28
15 16 16 16 16 15 15 16 16 17 18 18 18 18 18 18 17 17 17 18 18 19 19 19 19 20 20 21 22 22 23 23 23 24 24 24 25 26 26 27 27 28 28 28
Wind_Direction
217 218 222 224 223 225 229 233 237 239 243 248 256 266 269 278 288 292 296 300 303 307 304 303 304 307 308 309 309 305 305 308 308 311 311 305 300 302 307 311 311 314 316 318
216 219 223 225 226 225 228 231 234 238 242 247 251 260 266 273 283 288 291 295 301 303 302 301 304 309 310 310 312 311 306 305 304 305 309 308 305 304 307 309 309 313 315 317
216 217 221 224 226 227 229 233 235 238 243 247 252 257 262 267 275 281 284 290 295 296 295 298 300 305 309 305 304 306 307 304 303 305 307 306 304 304 306 308 311 313 316 316
217 216 221 222 225 229 233 235 238 241 244 247 253 258 263 266 271 277 278 283 286 289 291 292 293 297 301 300 298 300 304 303 299 301 303 303 301 301 302 304 307 310 314 314
217 218 222 221 224 228 233 236 240 243 246 247 251 256 261 265 269 275 277 278 279 281 284 287 289 290 294 296 294 295 299 301 298 296 299 299 302 301 301 302 305 308 311 312
218 219 220 219 224 229 233 237 239 242 246 248 251 255 260 265 270 276 278 272 274 276 280 283 287 289 291 294 290 290 293 296 298 299 299 296 297 300 300 300 302 305 307 309
219 221 220 218 222 227 230 236 238 241 245 247 250 254 258 262 266 273 275 270 271 274 278 282 286 287 290 291 290 289 290 291 294 294 296 300 301 301 300 299 301 303 306 308
219 221 220 220 223 227 231 234 237 240 242 246 250 255 259 264 268 271 271 270 270 273 276 280 284 288 290 291 293 294 292 291 290 289 292 297 300 302 302 300 300 303 306 309
221 222 220 220 224 228 231 233 235 238 239 244 249 254 259 262 263 266 267 268 269 271 272 275 279 285 287 289 290 292 292 291 289 287 288 292 295 296 297 300 302 305 307 306
221 221 220 220 223 228 232 235 236 238 241 244 249 255 258 259 261 263 264 266 266 268 270 273 278 282 284 286 287 289 291 291 292 289 290 292 294 295 296 300 303 304 304 305
221 222 222 223 224 227 231 234 236 239 243 247 251 254 257 259 262 263 264 264 265 269 272 273 277 279 280 281 283 284 286 289 291 290 289 291 292 295 298 301 303 304 305 305
224 225 225 226 228 231 232 234 234 237 241 245 250 254 256 259 261 261 261 261 263 267 271 273 275 277 277 279 281 282 286 288 291 291 290 291 292 294 297 301 303 303 304 304
225 227 227 228 228 229 231 232 233 236 242 247 250 252 254 257 258 258 260 262 265 269 272 274 275 275 276 276 279 282 286 289 291 291 291 292 293 294 297 300 302 302 303 304
226 228 230 229 229 231 234 234 236 240 244 246 248 250 252 254 255 258 259 262 263 266 271 273 274 274 275 277 280 282 285 288 289 289 289 291 293 294 296 298 300 301 302 303
227 229 231 231 230 231 233 236 240 242 242 243 246 249 251 253 255 257 259 262 263 265 267 271 273 274 274 276 279 282 283 285 287 287 289 291 292 294 296 298 299 300 301 302
227 229 230 231 231 232 235 237 238 240 241 242 245 248 250 252 253 255 258 260 262 264 267 269 270 272 273 274 277 280 282 284 284 285 288 290 291 294 295 296 297 299 300 301
226 230 234 236 236 233 233 235 237 240 243 245 247 249 251 252 253 254 257 259 261 263 265 266 268 269 271 273 276 279 280 281 282 285 287 288 291 293 293 294 295 297 299 301
227 229 232 234 237 233 232 234 236 240 244 246 248 250 252 253 253 254 256 258 260 261 263 265 268 270 271 273 276 279 280 282 284 286 288 290 292 293 294 295 297 298 299 300
230 232 234 236 237 237 237 236 238 240 244 247 248 250 252 253 253 253 254 256 259 261 261 263 267 270 272 275 277 278 280 282 284 286 289 291 293 293 295 296 297 299 299 300
232 231 232 234 235 234 232 235 238 241 243 246 249 250 252 252 252 254 255 255 257 258 260 262 266 270 274 276 277 279 278 280 284 286 288 290 293 294 295 296 297 298 299 300
232 233 232 233 233 233 233 234 237 240 243 246 248 248 249 249 251 252 255 255 255 257 260 263 267 270 273 275 277 278 279 281 283 285 288 291 293 295 296 297 298 299 300 301
233 234 231 232 233 234 234 235 238 240 243 245 247 246 247 247 251 254 256 255 255 257 261 264 267 269 272 274 276 278 280 282 284 287 289 291 292 294 296 298 299 300 300 302
232 232 231 232 234 233 234 235 237 239 242 245 246 247 249 251 253 253 254 255 256 257 261 264 266 267 271 274 277 280 282 285 286 288 289 291 293 296 297 298 299 300 301 303
231 230 232 235 236 236 236 236 237 237 240 244 246 247 249 250 252 251 252 254 257 259 261 263 264 268 270 272 277 281 284 286 288 289 291 293 296 297 298 298 299 300 301 303
229 229 232 233 235 235 234 234 234 236 239 242 243 244 246 247 250 250 253 255 256 258 260 262 265 268 271 273 278 282 286 286 287 290 293 295 297 298 299 299 299 300 301 301
226 226 226 227 229 230 230 232 234 236 238 239 240 243 246 250 252 251 251 253 256 258 261 265 268 271 274 276 279 282 285 287 288 290 291 293 295 297 298 299 298 299 300 302
225 224 222 223 223 226 230 233 234 235 237 238 240 243 247 250 251 250 251 254 256 259 263 268 270 273 277 279 280 282 285 287 287 288 290 292 294 296 298 300 300 301 302 303
Height
5865 5869 5872 5875 5879 5882 5884 5887 5889 5892 5893 5895 5896 5897 5897 5897 5898 5898 5898 5898 5897 5897 5896 5895 5894 5893 5892 5890 5888 5887 5886 5885 5884 5883 5882 5881 5881 5880 5879 5877 5876 5874 5872 5870
5860 5864 5867 5870 5874 5877 5879 5882 5884 5886 5889 5891 5892 5893 5893 5894 5895 5895 5895 5895 5894 5894 5893 5892 5892 5891 5889 5888 5886 5885 5884 5883 5882 5881 5880 5879 5878 5877 5876 5875 5874 5872 5870 5868
5854 5858 5862 5866 5870 5872 5874 5877 5879 5881 5885 5886 5887 5888 5888 5889 5891 5891 5891 5891 5891 5891 5890 5889 5889 5888 5887 5886 5885 5884 5882 5881 5880 5879 5878 5877 5876 5875 5874 5873 5871 5870 5868 5866
5849 5854 5856 5864 5865 5867 5870 5872 5874 5877 5880 5881 5883 5884 5884 5885 5886 5887 5887 5887 5888 5887 5887 5886 5886 5885 5884 5883 5882 5881 5880 5879 5878 5876 5875 5874 5873 5872 5871 5870 5868 5867 5865 5863
5842 5846 5851 5857 5860 5862 5864 5867 5870 5872 5875 5877 5878 5879 5880 5881 5881 5882 5883 5883 5883 5883 5883 5883 5882 5882 5881 5880 5879 5878 5877 5876 5875 5873 5872 5871 5870 5869 5868 5866 5865 5863 5862 5860
5836 5840 5845 5852 5855 5856 5860 5861 5865 5867 5870 5872 5873 5875 5877 5877 5878 5878 5877 5878 5879 5879 5879 5879 5879 5878 5877 5876 5875 5874 5873 5873 5871 5870 5869 5868 5867 5866 5864 5863 5861 5860 5859 5857
5830 5834 5839 5846 5848 5851 5854 5857 5860 5863 5865 5867 5869 5871 5872 5873 5873 5874 5874 5874 5875 5875 5875 5875 5874 5874 5873 5872 5871 5870 5869 5868 5867 5866 5865 5864 5863 5862 5860 5859 5858 5856 5855 5853
5824 5828 5836 5840 5842 5845 5849 5853 5855 5857 5860 5862 5864 5866 5867 5868 5869 5870 5870 5871 5871 5871 5870 5870 5870 5870 5869 5868 5867 5866 5865 5863 5862 5862 5862 5861 5860 5858 5857 5855 5854 5852 5851 5849
5819 5825 5830 5833 5836 5839 5843 5846 5849 5852 5854 5857 5859 5861 5862 5863 5864 5865 5866 5866 5866 5866 5866 5866 5866 5865 5865 5864 5863 5862 5861 5860 5859 5858 5858 5857 5856 5854 5853 5851 5850 5848 5846 5844
5812 5817 5822 5827 5830 5834 5838 5841 5844 5846 5849 5852 5854 5856 5857 5858 5859 5860 5860 5861 5861 5861 5861 5861 5861 5861 5860 5859 5859 5858 5857 5856 5855 5854 5854 5853 5852 5850 5849 5847 5846 5844 5842 5840
5805 5811 5816 5820 5824 5828 5831 5835 5838 5841 5844 5846 5848 5850 5851 5852 5853 5854 5854 5855 5856 5856 5856 5857 5856 5856 5856 5855 5855 5854 5853 5852 5851 5850 5849 5848 5847 5846 5844 5843 5841 5839 5837 5835
5799 5805 5810 5815 5818 5822 5825 5829 5832 5835 5838 5840 5842 5844 5845 5847 5848 5848 5849 5850 5850 5851 5851 5851 5851 5851 5851 5850 5850 5849 5848 5846 5845 5845 5844 5843 5842 5841 5839 5838 5836 5833 5831 5828
5793 5798 5803 5807 5811 5815 5818 5822 5825 5828 5831 5833 5836 5838 5839 5840 5841 5842 5843 5844 5845 5846 5846 5846 5846 5845 5845 5845 5845 5844 5843 5841 5840 5840 5839 5838 5837 5835 5834 5832 5830 5827 5825 5822
5786 5791 5795 5799 5804 5807 5811 5814 5817 5820 5824 5826 5829 5831 5833 5834 5835 5836 5837 5838 5839 5840 5840 5840 5840 5840 5839 5839 5839 5839 5838 5837 5836 5835 5833 5832 5831 5829 5828 5826 5824 5821 5818 5816
5779 5784 5788 5792 5795 5798 5802 5806 5810 5813 5816 5820 5822 5824 5826 5827 5829 5830 5831 5832 5833 5834 5834 5835 5835 5834 5834 5834 5834 5833 5832 5831 5830 5829 5828 5826 5825 5823 5821 5819 5817 5815 5812 5809
5773 5776 5780 5783 5787 5791 5795 5798 5802 5805 5808 5812 5815 5817 5819 5820 5822 5823 5825 5826 5827 5827 5828 5828 5829 5829 5828 5828 5828 5827 5827 5826 5825 5823 5822 5820 5819 5817 5815 5813 5811 5808 5806 5802
5766 5770 5774 5777 5781 5784 5788 5791 5795 5798 5801 5804 5807 5810 5811 5813 5815 5816 5818 5819 5820 5821 5821 5822 5822 5822 5822 5822 5822 5821 5820 5820 5818 5817 5815 5814 5812 5810 5809 5806 5804 5801 5798 5795
5760 5764 5767 5771 5774 5777 5780 5784 5788 5792 5795 5798 5800 5802 5804 5806 5807 5809 5811 5812 5813 5814 5814 5815 5815 5815 5815 5815 5815 5814 5814 5813 5811 5810 5809 5807 5805 5803 5801 5798 5796 5793 5790 5787
5753 5757 5760 5764 5768 5770 5775 5778 5782 5785 5788 5791 5793 5795 5796 5798 5800 5802 5804 5805 5806 5807 5807 5808 5808 5808 5809 5808 5808 5807 5806 5806 5804 5803 5802 5800 5798 5796 5793 5791 5788 5785 5782 5779
5747 5750 5754 5757 5761 5764 5768 5772 5775 5778 5782 5784 5786 5788 5789 5791 5793 5794 5796 5798 5799 5799 5800 5801 5801 5802 5801 5801 5801 5800 5799 5798 5797 5796 5794 5793 5791 5788 5786 5783 5781 5778 5774 5771
5742 5745 5749 5752 5755 5758 5762 5765 5768 5771 5774 5777 5779 5781 5782 5784 5786 5787 5788 5790 5791 5792 5793 5793 5794 5794 5794 5794 5794 5793 5792 5791 5790 5788 5787 5785 5783 5780 5778 5775 5773 5770 5767 5763
5737 5739 5742 5746 5749 5752 5756 5759 5762 5765 5768 5770 5772 5774 5776 5777 5779 5780 5781 5782 5783 5784 5785 5786 5787 5787 5787 5787 5787 5786 5785 5784 5782 5781 5779 5778 5775 5773 5771 5768 5765 5762 5759 5756
5731 5734 5736 5740 5743 5746 5749 5752 5756 5758 5761 5763 5766 5767 5769 5770 5772 5773 5774 5775 5776 5777 5778 5779 5780 5780 5780 5780 5780 5779 5778 5776 5775 5774 5772 5770 5768 5765 5763 5760 5758 5754 5751 5748
5725 5728 5731 5734 5737 5740 5743 5746 5749 5752 5755 5757 5759 5761 5763 5764 5765 5766 5768 5769 5770 5771 5772 5773 5773 5773 5774 5773 5773 5772 5771 5770 5768 5766 5765 5763 5760 5758 5755 5753 5750 5747 5744 5740
5720 5723 5726 5729 5732 5735 5737 5740 5743 5746 5748 5750 5752 5754 5756 5758 5759 5761 5762 5763 5764 5765 5766 5766 5767 5767 5767 5767 5766 5765 5764 5762 5761 5759 5758 5756 5753 5751 5748 5745 5743 5739 5736 5732
5717 5719 5722 5724 5727 5730 5733 5735 5738 5740 5743 5745 5747 5749 5750 5752 5754 5755 5756 5757 5758 5759 5760 5760 5760 5760 5760 5760 5759 5758 5757 5755 5754 5752 5751 5748 5746 5744 5741 5738 5735 5732 5728 5725
5714 5716 5719 5722 5724 5727 5729 5732 5734 5736 5738 5740 5742 5744 5746 5747 5748 5750 5751 5752 5752 5753 5754 5754 5754 5754 5754 5753 5752 5751 5750 5748 5747 5745 5743 5741 5739 5736 5733 5730 5727 5724 5720 5717